パンスターズ彗星

419P/PanSTARRS (2021)

English version
Home page
Updated on September 18, 2021

---------------------------------------------------------------------

・ プロフィール

符号 P/2021 A11
符号 419P/2021 A11
検出日 2021年1月13日
検出光度 21.3等
検出者 E. Schwab (Egelsbach, Germany)

・ 軌道要素

Epoch 2021 Nov. 2.0 TT = JDT 2459520.5
T 2021 Oct. 27.46743 TT                                 Rudenko
q   2.5432729            (2000.0)            P               Q
n   0.14918184     Peri.  187.50275     -0.67062679     +0.74111784
a   3.5209410      Node    40.38961     -0.67801844     -0.59508116
e   0.2776724      Incl.    2.80294     -0.30091644     -0.31084203
P   6.61
From 235 observations 2015 Jan. 24-2021 Apr. 15, mean residual 1".1.

・ 光度変化

        m1 = 10.0 + 5 logΔ + 20.0 log r

        ※ 灰色の曲線は、m1 = 7.5 + 5 logΔ + 20.0 log r の光度曲線です。

---------------------------------------------------------------------

軌道要素はM.P.E.C. 2021-J28に掲載されたものです。
光度グラフはComet for Windowsで作成したものです。

---------------------------------------------------------------------

Copyright(C) Seiichi Yoshida (comet@aerith.net). All rights reserved.